Regional Weather Roundup
Issued by NWS

Home | Current Version | Previous Version | Graphics & Text | Print | Product List | Glossary On
Versions: 1 2 3 4 5 6 7 8 9 10 11 12 13 14 15 16 17 18 19 20 21 22 23 24 25 26 27 28 29 30 31 32 33 34 35 36 37 38 39 40 41 42 43 44 45 46 47 48 49 50
000
ASUS43 KIND 230709
RWRIN

WEATHER ROUNDUP FOR INDIANA
NATIONAL WEATHER SERVICE INDIANAPOLIS IN
300 AM EDT SAT SEP 23 2017

NOTE: "FAIR" INDICATES FEW OR NO CLOUDS BELOW 12,000 FEET WITH NO
SIGNIFICANT WEATHER AND/OR OBSTRUCTIONS TO VISIBILITY.

* - STATION DOES NOT REPORT WEATHER SUCH AS PRECIPITATION OR FOG.

+ - STATION NOT QUALITY CONTROLLED BY THE NATIONAL WEATHER SERVICE.
    USE DATA WITH CAUTION...ESPECIALLY DEWPOINT AND RELATIVE
    HUMIDITY OBSERVATIONS.

INZ001>003-010>013-019-020-230800-
NORTHWEST INDIANA

CITY           SKY/WX    TMP DP  RH WIND       PRES   REMARKS
GARY /AIRPORT/ CLEAR     71  69  92 CALM      30.05S
KNOX *+        CLEAR     64  63  94 CALM      30.05F
LA PORTE +     PTCLDY    67  66  96 CALM      30.07S
MICHIGAN CITY+ CLEAR     68  68 100 CALM      30.06S
MONTICELLO +   CLEAR     68  67  95 CALM      30.05S
RENSSELAER +   CLEAR     68  61  77 CALM      30.06S
VALPARAISO     CLEAR     70  68  93 CALM      30.06S

$$

LMZ046-743>745-230800-
SOUTHERN LAKE MICHIGAN

STATION/POSITION TIME  TEMP    WIND        PRES    WAVE
                       AIR SEA DIR/SP/G            HT
                 (UTC) (F)     (DEG/KT/KT) (MB)    (FT)
BURNS HARBOR     0640   76     180/  5/  8 1017.9R
MICHIGAN CITY    0640   78     140/  9/  9   N/A
5NW MICH CITY    0700   74 72  180/  4/  4   N/A     0

$$

INZ004-005-014>016-021>024-230800-
NORTH CENTRAL INDIANA

CITY           SKY/WX    TMP DP  RH WIND       PRES   REMARKS
GOSHEN         CLEAR     68  64  87 CALM      30.08R
LOGANSPORT +   CLEAR     64  63  94 E3        30.07S
PERU/GRISSOM   CLEAR     68  68 100 E3        30.05S
SOUTH BEND     CLEAR     71  68  90 CALM      30.07S
WARSAW +       CLEAR     68  68 100 CALM      30.08S

$$

INZ006>009-017-018-025>027-230800-
NORTHEAST INDIANA

CITY           SKY/WX    TMP DP  RH WIND       PRES   REMARKS
AUBURN +       CLEAR     66  64  94 CALM      30.08F FOG
FORT WAYNE     CLEAR     68  65  90 N3        30.08S
HUNTINGTON +   CLEAR     66  65  96 CALM      30.07S
KENDALLVILLE + CLEAR     68  65  90 CALM      30.09F

$$

INZ028-029-035-036-043>045-051>053-230800-
WEST CENTRAL INDIANA

CITY           SKY/WX    TMP DP  RH WIND       PRES   REMARKS
GREENCASTLE +  MOCLDY    68  64  88 CALM      30.07S
LAFAYETTE      CLEAR     68  68 100 CALM      30.04F
TERRE HAUTE    PTCLDY    69  66  90 CALM      30.05S

$$

INZ030>032-037>040-046>048-054>057-064-065-230800-
CENTRAL INDIANA

CITY           SKY/WX    TMP DP  RH WIND       PRES   REMARKS
CP ATTERBURY + FOG       64  63  94 CALM      30.07S VSB 1/2
FRANKFORT +    CLOUDY    67  66  94 CALM      30.08S
GREENWOOD *+   CLEAR     74  70  87 CALM      30.07S
INDIANAPOLIS   NOT AVBL
-EAGLE CREEK   CLEAR     70  68  93 CALM      30.06S FOG
KOKOMO +       CLEAR     68  67  96 CALM      30.07S
MT COMFORT *+  CLEAR     64  64 100 CALM      30.07S
SHELBYVILLE    CLEAR     67  62  84 CALM      30.06S
ZIONSVILLE +   CLEAR     65  64  99 CALM      30.08S

$$

INZ033-034-041-042-049-050-058-059-230800-
EAST CENTRAL INDIANA

CITY           SKY/WX    TMP DP  RH WIND       PRES   REMARKS
MUNCIE         CLEAR     68  65  90 SW3       30.07S FOG
RICHMOND +     CLEAR     64  63  94 CALM      30.09F FOG

$$

INZ060-061-067>069-081>083-085>088-230800-
SOUTHWEST INDIANA

CITY           SKY/WX    TMP DP  RH WIND       PRES   REMARKS
EVANSVILLE     CLEAR     69  66  90 CALM      30.04R
HUNTINGBURG +  CLEAR     68  68 100 CALM      30.05S FOG
WASHINGTON +   CLEAR     66  65  94 CALM      30.04S FOG

$$

INZ062-063-066-070>080-084-089>092-230800-
SOUTH CENTRAL AND SOUTHEAST INDIANA

CITY           SKY/WX    TMP DP  RH WIND       PRES   REMARKS
BEDFORD +      CLEAR     68  64  88 CALM      30.06S FOG
BLOOMINGTON    FOG       67  65  93 CALM      30.06S VSB 1
MADISON *+     CLEAR     64  63  94 CALM      30.09S
NORTH VERNON + CLEAR     64  63  94 CALM      30.07F FOG
SEYMOUR +      CLEAR     66  66 100 CALM      30.06S FOG

$$




USA.gov is the U.S. government's official web portal to all federal, state and local government web resources and services.